Location: Jackson Park
(37.2862°N, 79.9123°W)
Time: 19:45:30
(UTC+00:00)

Vanguard 3 - Pass Details

Date: 15 May 2026
Orbit: 507 x 3205 km, 33.4° (Epoch: 31 May)

Event Time Altitude Azimuth Distance (km) Brightness Sun altitude
Rises 20:46:25 0° 262° (W) 6,937 12.8 40.9°
Reaches altitude 10° 20:50:52 10° 261° (W) 6,048 12.8 40.0°
Maximum altitude 21:10:41 78° 180° (S) 3,034 10.7 36.1°
Drops below altitude 10° 21:25:50 10° 97° (E) 4,804 10.7 33.1°
Sets 21:28:55 0° 96° (E) 5,512 10.9 32.4°
